| time (UTC) | temp C | wind direction | speed KPH | gust KPH | rain 1hr cm | rain 24hr cm | rain mn cm | humidity % | barometer mb |
| 20260504211804 | 17 | 240 | 3.2 | 11.3 | 0.00 | 0.05 | 0.05 | 56 | 1005.1 |
| 20260504210905 | 17 | 263 | 4.8 | 12.9 | 0.00 | 0.05 | 0.05 | 56 | 1005.1 |
| 20260504210025 | 17 | 244 | 4.8 | 12.9 | 0.00 | 0.05 | 0.05 | 56 | 1005.1 |
| 20260504205404 | 17 | 253 | 3.2 | 8.0 | 0.00 | 0.05 | 0.05 | 57 | 1005.1 |
| 20260504204525 | 17 | 246 | 3.2 | 8.0 | 0.00 | 0.05 | 0.05 | 58 | 1005.1 |
| 20260504203604 | 17 | 246 | 4.8 | 12.9 | 0.00 | 0.05 | 0.05 | 59 | 1005.1 |
| 20260504202704 | 16 | 235 | 4.8 | 11.3 | 0.00 | 0.05 | 0.05 | 59 | 1005.1 |
| 20260504201804 | 17 | 242 | 3.2 | 9.7 | 0.00 | 0.05 | 0.05 | 59 | 1005.1 |
| 20260504200925 | 17 | 244 | 3.2 | 9.7 | 0.00 | 0.05 | 0.05 | 59 | 1005.1 |
| 20260504200004 | 17 | 237 | 4.8 | 12.9 | 0.00 | 0.05 | 0.05 | 59 | 1005.1 |
| 20260504195404 | 16 | 219 | 6.4 | 14.5 | 0.00 | 0.05 | 0.05 | 59 | 1005.1 |
| 20260504194525 | 16 | 236 | 6.4 | 14.5 | 0.00 | 0.05 | 0.05 | 60 | 1005.1 |
| 20260504193604 | 16 | 219 | 4.8 | 11.3 | 0.00 | 0.05 | 0.05 | 61 | 1005.1 |
| 20260504192704 | 16 | 233 | 4.8 | 14.5 | 0.00 | 0.05 | 0.05 | 63 | 1005.1 |
| 20260504191805 | 15 | 253 | 4.8 | 12.9 | 0.00 | 0.05 | 0.05 | 65 | 1005.1 |
| 20260504190904 | 15 | 243 | 4.8 | 11.3 | 0.00 | 0.05 | 0.05 | 65 | 1005.1 |
| 20260504190004 | 14 | 239 | 3.2 | 11.3 | 0.00 | 0.05 | 0.05 | 67 | 1005.1 |
| 20260504185404 | 14 | 239 | 1.6 | 6.4 | 0.00 | 0.05 | 0.05 | 70 | 1005.1 |
| 20260504184504 | 13 | 236 | 3.2 | 9.7 | 0.00 | 0.05 | 0.05 | 75 | 1005.1 |
| 20260504183604 | 13 | 231 | 3.2 | 9.7 | 0.00 | 0.05 | 0.05 | 76 | 1005.1 |
| 20260504182704 | 12 | 274 | 1.6 | 6.4 | 0.00 | 0.05 | 0.05 | 80 | 1005.1 |
| 20260504181805 | 12 | 333 | 1.6 | 6.4 | 0.00 | 0.05 | 0.05 | 81 | 1005.1 |
| 20260504180904 | 12 | 313 | 1.6 | 6.4 | 0.00 | 0.05 | 0.05 | 81 | 1005.1 |
| 20260504180004 | 11 | 305 | 3.2 | 8.0 | 0.03 | 0.05 | 0.05 | 83 | 1005.1 |
| 20260504175404 | 11 | 307 | 3.2 | 6.4 | 0.05 | 0.05 | 0.05 | 85 | 1005.1 |
| 20260504174525 | 11 | 285 | 3.2 | 6.4 | 0.05 | 0.05 | 0.05 | 86 | 1005.1 |
| 20260504173604 | 11 | 277 | 3.2 | 6.4 | 0.05 | 0.05 | 0.05 | 89 | 1005.1 |
| 20260504172725 | 10 | 281 | 3.2 | 8.0 | 0.05 | 0.05 | 0.05 | 90 | 1005.1 |
| 20260504171803 | 10 | 283 | 3.2 | 11.3 | 0.05 | 0.05 | 0.05 | 90 | 1005.1 |
| 20260504170904 | 11 | 293 | 6.4 | 16.1 | 0.05 | 0.05 | 0.05 | 86 | 1005.1 |
| 20260504150904 | 13 | 182 | 8.0 | 19.3 | 0.00 | 0.00 | 0.00 | 66 | 1005.1 |
| 20260504140905 | 11 | 189 | 9.7 | 17.7 | 0.00 | 0.00 | 0.00 | 70 | 1005.1 |
| 20260504081805 | 3 | 206 | 0.0 | 3.2 | 0.00 | 0.00 | 0.00 | 74 | 1005.1 |
| 20260504080926 | 3 | 171 | 1.6 | 3.2 | 0.00 | 0.00 | 0.00 | 73 | 1005.1 |
| 20260504050025 | 3 | 192 | 1.6 | 4.8 | 0.00 | 0.00 | 0.00 | 74 | 1005.1 |
| 20260504045405 | 3 | 190 | 1.6 | 4.8 | 0.00 | 0.00 | 0.00 | 75 | 1005.1 |
| 20260504044504 | 3 | 228 | 1.6 | 4.8 | 0.00 | 0.00 | 0.00 | 74 | 1005.1 |
| 20260504043603 | 3 | 230 | 3.2 | 4.8 | 0.00 | 0.00 | 0.00 | 74 | 1005.1 |
| 20260504042705 | 3 | 226 | 3.2 | 6.4 | 0.00 | 0.00 | 0.00 | 74 | 1005.1 |
| 20260504041803 | 3 | 211 | 3.2 | 8.0 | 0.00 | 0.00 | 0.00 | 74 | 1005.1 |
| 20260504040924 | 3 | 212 | 3.2 | 9.7 | 0.00 | 0.00 | 0.00 | 74 | 1005.1 |
| 20260504040004 | 3 | 193 | 4.8 | 8.0 | 0.00 | 0.00 | 0.00 | 74 | 1005.1 |
| 20260504035403 | 3 | 186 | 3.2 | 8.0 | 0.00 | 0.00 | 0.00 | 76 | 1005.1 |
| 20260504034505 | 2 | 233 | 1.6 | 6.4 | 0.00 | 0.00 | 0.00 | 81 | 1005.1 |
| 20260504033603 | 3 | 235 | 4.8 | 8.0 | 0.00 | 0.00 | 0.00 | 79 | 1005.1 |
| 20260504032703 | 3 | 220 | 3.2 | 6.4 | 0.00 | 0.00 | 0.00 | 79 | 1005.1 |
| 20260504031805 | 3 | 180 | 1.6 | 4.8 | 0.00 | 0.00 | 0.00 | 77 | 1005.1 |
| 20260504030904 | 2 | 205 | 0.0 | 4.8 | 0.00 | 0.00 | 0.00 | 79 | 1005.1 |
| 20260504030004 | 3 | 231 | 1.6 | 6.4 | 0.00 | 0.00 | 0.00 | 80 | 1005.1 |
| 20260504025425 | 3 | 232 | 1.6 | 6.4 | 0.00 | 0.00 | 0.00 | 79 | 1005.1 |
| 20260504024504 | 3 | 195 | 1.6 | 4.8 | 0.00 | 0.00 | 0.00 | 77 | 1005.1 |
| 20260504023603 | 3 | 194 | 1.6 | 4.8 | 0.00 | 0.00 | 0.00 | 78 | 1005.1 |
| 20260504022703 | 3 | 201 | 0.0 | 4.8 | 0.00 | 0.00 | 0.00 | 76 | 1005.1 |
| 20260504021824 | 3 | 216 | 1.6 | 3.2 | 0.00 | 0.00 | 0.00 | 75 | 1005.1 |
| 20260504020903 | 4 | 203 | 1.6 | 4.8 | 0.00 | 0.00 | 0.00 | 74 | 1005.1 |
| 20260504020026 | 4 | 194 | 3.2 | 4.8 | 0.00 | 0.00 | 0.00 | 72 | 1005.1 |
| 20260504015403 | 4 | 194 | 3.2 | 4.8 | 0.00 | 0.00 | 0.00 | 71 | 1005.1 |
| 20260504014503 | 4 | 205 | 1.6 | 4.8 | 0.00 | 0.00 | 0.00 | 73 | 1005.1 |
| 20260504013624 | 5 | 225 | 1.6 | 4.8 | 0.00 | 0.00 | 0.00 | 71 | 1005.1 |
| 20260504012703 | 5 | 217 | 1.6 | 4.8 | 0.00 | 0.05 | 0.00 | 70 | 1005.1 |
| 20260504011803 | 5 | 238 | 3.2 | 4.8 | 0.00 | 0.05 | 0.00 | 68 | 1005.1 |
| 20260504010924 | 5 | 248 | 1.6 | 4.8 | 0.00 | 0.05 | 0.00 | 67 | 1005.1 |
| 20260504010005 | 6 | 240 | 3.2 | 6.4 | 0.00 | 0.05 | 0.00 | 66 | 1005.1 |
| 20260504005404 | 6 | 243 | 3.2 | 6.4 | 0.00 | 0.05 | 0.00 | 65 | 1005.1 |
| 20260504004503 | 6 | 241 | 3.2 | 8.0 | 0.00 | 0.05 | 0.00 | 63 | 1005.1 |
| 20260504003605 | 7 | 256 | 3.2 | 9.7 | 0.00 | 0.05 | 0.00 | 63 | 1005.1 |
| 20260504002703 | 7 | 268 | 4.8 | 14.5 | 0.00 | 0.05 | 0.00 | 61 | 1005.1 |
| 20260504001804 | 7 | 291 | 4.8 | 14.5 | 0.00 | 0.05 | 0.00 | 60 | 1005.1 |
| 20260504000903 | 7 | 276 | 4.8 | 12.9 | 0.00 | 0.05 | 0.00 | 59 | 1005.1 |
| 20260504000004 | 7 | 277 | 6.4 | 14.5 | 0.00 | 0.05 | 0.00 | 59 | 1005.1 |
| 20260503235405 | 7 | 273 | 6.4 | 19.3 | 0.00 | 0.05 | 0.00 | 59 | 1005.1 |
| 20260503234505 | 8 | 266 | 4.8 | 12.9 | 0.00 | 0.05 | 0.00 | 57 | 1005.1 |
| 20260503233603 | 8 | 291 | 4.8 | 11.3 | 0.00 | 0.05 | 0.00 | 58 | 1005.1 |
| 20260503232703 | 8 | 281 | 4.8 | 14.5 | 0.00 | 0.05 | 0.00 | 57 | 1005.1 |
| 20260503231824 | 8 | 293 | 6.4 | 14.5 | 0.00 | 0.05 | 0.00 | 56 | 1005.1 |
| 20260503230903 | 8 | 294 | 6.4 | 14.5 | 0.00 | 0.05 | 0.00 | 55 | 1005.1 |
| 20260503230026 | 8 | 300 | 8.0 | 17.7 | 0.00 | 0.05 | 0.00 | 55 | 1005.1 |
| 20260503225403 | 8 | 308 | 8.0 | 16.1 | 0.00 | 0.05 | 0.00 | 54 | 1005.1 |
| 20260503224503 | 8 | 317 | 8.0 | 20.9 | 0.00 | 0.05 | 0.00 | 54 | 1005.1 |
| 20260503223603 | 9 | 303 | 8.0 | 16.1 | 0.00 | 0.05 | 0.00 | 53 | 1005.1 |
| 20260503222703 | 9 | 296 | 6.4 | 19.3 | 0.00 | 0.05 | 0.00 | 54 | 1005.1 |
| 20260503221803 | 8 | 300 | 8.0 | 16.1 | 0.00 | 0.05 | 0.00 | 54 | 1005.1 |
| 20260503220903 | 9 | 297 | 6.4 | 14.5 | 0.00 | 0.05 | 0.00 | 54 | 1005.1 |
| 20260503220025 | 9 | 288 | 6.4 | 14.5 | 0.00 | 0.05 | 0.00 | 55 | 1005.1 |
| 20260503215403 | 9 | 288 | 8.0 | 20.9 | 0.00 | 0.05 | 0.00 | 53 | 1005.1 |
| 20260503214503 | 10 | 299 | 6.4 | 14.5 | 0.00 | 0.08 | 0.00 | 54 | 1005.1 |
| 20260503213624 | 10 | 264 | 6.4 | 12.9 | 0.00 | 0.08 | 0.00 | 54 | 1005.1 |
| 20260503212703 | 10 | 262 | 4.8 | 12.9 | 0.00 | 0.08 | 0.00 | 55 | 1005.1 |